User: anonymous   Login
Location: Caltech
(34.1382°N, 118.1253°W)
Time: 08:21:17
(UTC-08:00)
Language:

CZ-2C R/B - Orbit

View from above orbital plane
View from above orbital plane
View from above satellite
View from above satellite

Ground track
Ground track

The orbit data is extracted from the following two-line orbital elements,

1 36089U 09061B   18055.02391541 -.00000002 +00000-0 +10991-4 0  9993
2 36089 098.0660 050.7949 0081874 351.0782 075.5037 14.49711452438106
Epoch (UTC): 24 February 2018 00:34:26
Eccentricity: 0.0081874
inclination: 98.0660°
perigee height: 668 km
apogee height: 785 km
right ascension of ascending node: 50.7949°
argument of perigee: 351.0782°
revolutions per day: 14.49711452
mean anomaly at epoch: 75.5037°
orbit number at epoch: 43810

The dashed part of the orbit path shows where the satellite is in the earth's shadow,  

DLR